GFSCGP_700_spd_099.txt.gz
Wind_Speed
21 30 38 33 35 39 35 27 33 32 27 23 28 34 20 27 23 23 19 28 24 19 28 26 26 26 18 18 18 11 2 2 6 8 11 13 19 24 27 35 40 43 41 40
20 36 29 28 27 26 26 30 33 36 31 28 33 36 26 25 28 28 26 21 21 27 28 30 24 24 18 16 15 11 4 7 5 10 13 12 13 23 35 39 34 44 38 39
28 32 20 26 23 27 33 35 33 35 30 29 36 43 32 25 24 28 30 31 25 29 33 29 21 21 19 15 14 11 5 6 7 9 10 12 14 19 31 37 36 43 43 43
29 29 26 25 28 24 34 29 31 32 24 22 23 29 38 31 21 28 25 25 28 31 28 23 22 22 19 13 11 10 8 5 7 9 10 12 12 17 27 34 32 33 39 43
45 18 24 32 33 29 33 20 26 29 25 30 26 25 30 32 29 27 25 24 26 33 31 28 31 24 20 12 10 8 6 6 3 9 7 10 18 17 19 24 24 35 40 40
37 29 28 31 28 25 24 21 18 17 18 15 24 24 16 26 30 26 24 26 27 36 30 25 25 24 19 12 9 6 6 4 2 10 8 5 7 17 19 18 18 28 31 29
36 42 35 30 28 24 25 24 3 3 5 6 18 21 28 33 26 22 23 21 26 31 25 28 26 21 18 11 9 4 5 3 2 10 10 5 7 5 11 18 23 27 30 32
21 11 36 35 36 25 23 21 13 8 5 4 21 10 14 18 23 21 20 23 22 18 19 26 25 15 17 11 8 4 3 2 2 6 11 10 10 8 10 14 17 15 28 31
10 14 12 19 28 26 29 28 26 25 20 1 9 18 21 7 13 5 14 10 14 17 17 15 14 12 16 12 9 6 4 2 2 3 5 8 10 11 8 15 16 23 24 21
14 7 16 16 26 30 29 21 20 22 13 7 8 13 7 12 12 16 12 11 15 16 12 14 14 12 15 12 12 10 8 6 4 4 5 5 6 6 9 13 18 19 26 26
14 9 12 3 11 30 27 28 18 7 21 5 2 7 6 16 4 9 9 7 11 17 16 15 11 9 11 13 12 11 11 8 7 7 5 5 5 7 8 9 9 13 20 25
9 6 3 11 7 8 32 27 22 20 13 15 23 16 7 11 14 4 18 4 6 7 14 21 15 12 11 13 13 11 11 11 10 10 9 7 7 6 7 9 11 10 12 14
3 3 3 5 11 2 8 13 16 26 30 25 7 4 7 10 10 12 10 4 2 11 7 17 15 14 14 13 14 16 14 12 12 11 10 10 9 9 7 8 7 9 11 13
7 2 6 4 3 6 13 6 8 5 18 25 26 23 8 18 11 8 8 15 7 11 10 16 21 12 15 14 14 14 19 20 16 13 12 12 12 12 13 12 12 12 13 13
11 6 9 7 6 9 13 13 10 8 11 6 19 16 6 8 21 12 13 7 10 8 3 5 11 11 14 17 20 19 19 17 25 21 17 17 18 17 18 18 18 18 18 18
5 8 11 20 12 12 22 21 18 16 16 12 13 21 16 11 11 15 15 14 9 17 11 5 9 6 16 21 20 19 19 18 18 24 21 19 20 20 20 20 20 21 22 22
10 6 3 7 10 14 14 21 20 23 20 16 18 21 25 18 13 14 20 18 19 13 15 22 17 11 13 21 28 20 20 21 19 21 23 20 19 20 20 20 22 23 23 24
6 10 7 4 4 3 10 3 6 4 5 10 12 11 12 19 16 15 16 18 21 26 21 18 18 19 13 14 20 26 25 23 24 23 24 24 21 20 21 21 21 23 26 27
15 9 6 2 2 14 10 5 4 7 3 3 9 11 10 12 17 22 16 15 19 29 31 29 24 24 24 19 20 18 27 32 24 23 25 27 28 27 25 24 22 23 25 27
28 20 16 6 4 4 8 7 1 8 6 5 7 11 15 15 14 16 17 19 25 32 37 35 36 30 25 26 26 27 24 26 30 29 32 28 31 33 33 29 27 26 28 29
33 27 26 25 7 10 12 5 6 3 4 4 6 9 11 13 14 21 24 25 28 32 33 30 36 40 38 32 29 34 30 24 31 33 33 30 29 34 39 37 29 27 38 39
27 20 21 20 9 9 2 3 6 3 4 5 8 13 15 18 20 21 21 21 26 31 33 36 35 35 39 43 41 37 38 34 32 32 33 32 32 32 33 35 36 37 39 42
12 29 12 15 21 6 7 2 8 1 3 11 13 16 18 17 21 21 21 22 26 28 30 35 39 39 38 36 40 44 45 45 44 39 37 34 31 33 36 40 43 41 44 43
11 25 12 14 16 13 13 12 4 11 4 11 13 18 19 23 21 18 19 16 21 22 25 30 35 36 35 32 29 30 31 37 42 42 38 38 38 37 40 42 43 43 42 46
7 4 9 17 16 18 10 19 6 6 13 12 15 15 21 22 20 19 20 16 21 19 24 29 29 30 33 27 25 24 23 29 37 40 39 39 39 38 43 39 39 42 41 41
6 7 10 3 8 4 5 16 5 8 11 11 17 17 16 18 17 18 18 16 16 17 25 27 25 24 21 22 21 20 19 20 26 30 33 37 38 42 45 44 44 41 42 45

GFSCGP_700_spd_102.txt.gz
Wind_Speed
21 34 44 39 37 39 40 35 38 37 29 25 28 33 32 26 23 18 24 27 22 29 30 29 26 27 20 17 23 22 19 13 9 8 9 10 12 17 14 20 40 47 43 48
25 39 34 32 31 33 37 41 47 40 32 30 34 41 36 34 30 22 20 24 26 22 34 34 30 28 19 17 21 21 17 14 14 10 10 10 13 20 18 28 42 43 41 50
33 27 22 30 30 32 35 36 36 33 21 25 28 40 35 38 39 29 22 23 30 33 32 31 35 28 20 16 20 20 17 13 14 12 12 11 12 19 24 29 29 51 36 43
32 34 32 20 27 27 34 27 33 32 29 24 19 23 31 36 37 38 26 29 28 27 34 35 27 28 21 17 20 18 17 12 12 14 11 12 12 18 32 32 30 40 39 46
43 14 28 36 36 23 32 18 25 29 33 27 24 18 18 12 27 35 31 27 22 24 25 34 28 25 22 17 17 15 15 11 9 11 8 7 8 14 25 36 37 38 35 38
40 28 20 21 27 29 27 28 32 30 32 18 14 15 22 12 20 26 32 30 31 25 33 29 26 27 19 21 17 12 13 9 6 12 8 6 6 9 18 24 35 37 38 41
40 45 42 32 27 27 25 19 8 7 5 6 12 14 35 27 29 30 24 27 26 29 32 27 28 25 19 21 16 10 10 5 3 11 11 9 11 12 14 19 22 36 36 38
19 16 37 37 44 34 35 31 16 8 5 5 20 8 7 9 13 19 17 24 24 18 23 28 28 23 19 19 15 10 7 3 2 7 12 10 11 12 14 24 17 23 26 37
9 13 10 14 37 39 40 26 25 25 13 3 6 9 14 20 12 7 1 17 17 17 17 20 20 23 18 17 16 12 10 6 5 6 9 10 10 10 8 15 20 27 27 31
21 24 17 14 14 29 39 29 19 16 8 6 6 12 14 15 9 1 12 7 10 23 16 15 13 16 17 18 17 15 12 9 8 7 6 7 7 8 8 13 16 20 27 23
13 20 18 14 16 26 29 37 16 20 15 10 1 6 14 18 12 7 1 10 8 6 25 25 9 10 13 20 18 15 13 10 7 8 8 6 6 5 5 7 13 17 22 22
4 8 14 19 7 4 23 28 30 13 4 4 3 11 15 7 4 23 12 7 11 17 8 34 24 8 8 20 18 14 13 10 9 9 7 8 8 9 9 9 10 15 22 26
12 3 7 11 8 5 12 8 17 22 20 16 4 5 6 7 6 8 18 18 9 15 14 20 32 27 15 13 20 17 14 12 11 10 9 8 7 8 10 10 11 11 13 15
12 10 10 6 5 3 4 2 5 7 7 9 24 23 10 4 13 11 2 8 14 11 18 16 19 32 27 21 15 17 16 16 15 13 11 9 7 7 10 12 13 13 13 14
12 6 11 3 2 0 3 7 3 7 2 4 6 6 4 3 4 8 4 9 11 15 13 12 8 23 28 26 23 20 16 14 13 21 17 14 13 14 13 15 15 16 17 18
1 7 11 5 5 3 12 11 11 11 12 7 8 6 4 1 8 7 5 5 10 12 10 4 9 8 19 21 21 21 21 18 15 14 20 24 21 19 19 19 19 20 20 21
5 9 11 2 8 8 9 7 5 7 12 12 14 10 4 4 9 6 8 15 15 7 11 15 2 7 2 9 20 21 21 19 15 16 18 21 26 24 23 23 23 23 24 24
9 6 7 8 11 1 2 5 5 4 5 8 10 10 5 10 11 12 14 16 17 16 17 17 20 11 11 11 15 20 23 25 24 21 17 17 23 24 25 27 27 27 28 29
19 8 5 4 2 10 6 1 6 3 8 7 8 8 9 4 5 10 12 12 16 17 19 23 25 27 24 16 15 16 19 21 27 27 24 18 18 23 26 27 29 30 30 32
24 20 11 3 2 3 5 6 7 6 6 5 3 5 10 12 9 10 13 15 18 22 23 23 29 32 35 35 30 22 19 22 25 25 34 31 24 21 23 25 28 32 32 33
23 28 25 19 6 8 16 4 5 4 3 1 4 6 8 9 11 15 20 20 21 22 25 30 33 33 31 32 41 36 31 26 25 29 30 31 31 28 24 20 27 31 34 35
18 20 24 20 11 11 1 5 3 3 2 0 4 8 9 10 11 15 18 20 21 22 21 23 26 28 30 32 34 37 42 40 35 29 28 29 32 29 36 31 25 23 26 34
12 21 24 18 16 8 5 5 11 12 6 5 5 10 12 14 18 20 17 17 21 20 22 24 24 25 29 31 33 34 39 39 42 42 38 34 34 32 32 27 28 27 29 30
5 21 11 15 15 13 8 9 7 5 3 6 8 11 13 16 18 18 16 17 20 18 22 24 24 26 29 31 31 31 31 38 39 39 40 40 36 37 38 32 29 27 30 34
10 19 20 15 11 11 16 11 10 9 8 7 10 13 16 13 15 15 16 16 16 15 18 19 21 26 29 35 36 31 28 29 34 35 35 35 36 37 37 37 35 34 35 33
12 15 7 6 12 15 17 19 8 13 9 9 10 14 14 14 17 14 15 15 16 16 17 19 18 24 30 35 34 24 22 26 28 28 30 32 33 35 34 33 36 34 34 43

GFSCGP_700_spd_105.txt.gz
Wind_Speed
30 34 49 45 41 41 42 30 34 34 27 32 38 43 42 37 34 33 26 22 26 24 20 24 20 24 25 24 25 24 23 26 24 18 14 16 13 15 16 15 20 11 28 44
29 42 38 37 38 39 39 41 44 39 36 32 38 48 42 40 37 33 32 25 21 22 18 24 25 26 28 27 26 24 23 25 23 20 18 17 16 16 18 20 23 25 29 49
34 39 21 36 36 39 41 42 36 35 31 32 32 43 38 35 36 34 35 32 27 23 21 23 24 26 26 32 25 24 22 24 24 23 20 17 17 17 19 24 23 23 29 51
37 41 35 17 32 36 39 36 32 31 27 17 18 19 34 32 33 34 34 37 34 27 24 29 26 28 25 23 27 24 21 24 24 23 19 18 15 16 20 21 19 27 48 51
55 39 26 39 45 24 35 23 26 24 26 29 33 20 14 11 28 31 25 26 40 33 27 28 20 16 22 21 25 23 18 23 23 22 17 15 13 11 16 23 23 35 47 39
49 21 31 26 23 35 32 21 20 22 20 13 26 21 19 17 20 23 30 27 30 40 28 29 22 19 20 24 25 23 16 20 21 19 12 10 7 4 12 27 21 34 44 39
39 43 34 23 17 20 22 17 3 3 6 8 10 19 32 10 25 17 23 18 23 32 35 36 29 26 24 26 27 18 15 17 18 16 11 10 7 3 6 23 25 31 36 37
23 19 40 40 35 24 24 23 10 7 4 3 10 9 12 10 8 15 19 17 13 22 21 26 36 26 27 26 26 16 15 15 14 12 11 12 10 8 7 16 25 29 33 31
8 12 11 13 30 43 38 21 32 26 14 2 12 16 21 22 17 18 11 3 3 10 23 14 33 25 25 26 19 16 14 15 12 10 10 12 10 10 8 12 18 20 25 30
12 7 14 11 6 19 40 34 24 14 10 14 6 10 14 12 14 20 6 10 12 8 19 16 21 26 28 25 17 18 16 15 11 7 7 9 10 9 9 12 19 20 22 20
23 15 10 12 9 14 24 32 22 27 19 9 6 7 14 16 22 15 12 9 13 4 25 25 24 26 29 26 19 18 16 15 11 8 5 7 8 8 8 10 14 15 21 29
5 6 2 15 13 5 13 27 39 19 8 14 11 13 13 8 10 7 10 17 9 14 6 17 23 25 28 25 21 20 16 16 13 11 8 7 6 6 7 7 10 16 18 23
5 5 4 4 13 16 3 8 25 38 22 18 11 5 13 16 17 14 17 16 2 13 14 6 15 27 32 25 21 21 20 19 16 13 11 9 6 5 5 6 6 8 13 15
12 13 8 6 12 3 3 7 10 18 16 6 12 10 16 16 14 18 16 6 14 9 16 13 7 21 26 26 25 23 22 22 20 18 16 12 9 7 7 6 6 6 7 11
10 9 14 9 9 3 10 6 5 5 4 5 3 10 17 13 8 6 10 3 5 18 6 12 11 5 17 28 24 26 24 23 23 21 20 19 17 13 10 10 9 9 10 11
10 9 11 20 8 1 6 1 7 6 3 5 2 3 15 7 11 3 9 2 5 8 2 6 9 15 8 21 28 25 25 23 22 24 26 23 23 22 20 17 14 15 15 16
7 6 9 12 20 13 3 6 4 11 6 8 12 5 9 14 13 10 6 6 8 9 17 14 8 2 6 9 28 25 20 22 23 21 20 20 28 28 26 24 24 22 21 21
8 7 6 7 12 4 10 2 6 2 7 12 17 10 12 9 12 11 8 4 3 3 10 12 13 11 8 11 8 12 22 25 22 22 17 18 20 26 33 30 28 27 27 27
17 14 7 4 2 12 1 9 4 7 10 11 10 13 20 13 13 11 4 5 9 15 12 11 10 16 13 13 14 14 16 17 19 25 28 30 24 23 26 31 32 31 31 31
20 17 16 5 2 3 6 6 3 8 9 9 5 9 7 7 7 5 6 7 9 11 13 17 18 20 23 26 27 28 28 23 23 22 23 32 35 30 26 24 25 29 32 32
8 24 25 20 5 8 8 6 2 9 9 11 6 3 1 2 0 3 8 10 11 11 12 15 18 19 20 22 25 30 31 30 29 28 28 26 29 34 35 35 24 23 25 29
6 9 19 21 12 12 6 7 7 10 9 8 5 0 3 5 7 10 12 12 11 11 12 13 16 18 20 19 19 21 26 29 31 33 35 33 29 28 27 30 36 38 28 26
6 15 9 19 14 9 10 8 8 13 9 6 4 4 5 10 11 13 13 12 10 12 13 12 14 14 17 19 18 17 17 22 29 31 32 33 35 32 27 27 28 33 33 35
32 5 8 16 17 15 10 12 9 11 9 8 8 6 7 12 13 12 12 12 12 12 11 11 12 13 16 18 20 23 24 22 20 26 30 31 30 32 35 35 31 32 28 24
27 6 11 15 6 13 15 11 8 6 11 8 7 7 9 12 11 16 15 15 16 16 16 16 16 15 15 20 23 23 25 24 22 22 26 28 29 29 32 32 34 35 36 34
24 21 10 10 10 13 15 15 11 12 12 10 7 7 12 14 15 15 15 17 18 18 18 17 19 20 21 22 26 26 29 31 22 19 22 25 25 26 26 29 30 32 36 43

GFSCGP_700_spd_108.txt.gz
Wind_Speed
27 35 51 47 42 39 38 32 28 31 27 24 31 43 40 36 36 34 32 32 33 29 28 26 26 23 22 20 22 21 22 24 25 27 23 22 18 19 18 19 17 17 22 29
29 40 39 38 38 40 40 39 44 40 35 30 36 51 44 43 40 37 37 36 33 32 30 27 29 26 23 19 21 23 23 24 25 28 23 24 20 21 21 20 16 16 15 21
38 44 16 32 35 35 39 44 38 36 33 33 32 52 45 37 35 29 28 31 32 34 31 23 28 23 21 21 24 25 27 24 25 27 23 23 20 21 21 23 21 19 21 19
39 45 43 29 25 27 39 36 36 34 27 20 8 16 24 28 31 26 22 23 25 33 36 32 29 25 23 22 23 24 26 24 24 26 22 24 19 20 21 24 23 22 21 20
57 37 30 35 45 30 33 26 27 26 24 24 26 15 9 3 7 10 13 18 21 29 35 36 29 24 27 26 26 25 21 22 23 24 22 23 16 18 20 24 24 19 23 27
44 39 28 39 34 32 35 17 8 8 12 8 21 17 6 1 4 7 21 22 19 25 29 38 31 29 25 17 21 22 21 21 22 19 21 19 14 15 17 19 20 18 18 31
37 43 30 26 22 24 27 20 3 3 6 6 7 16 29 6 6 20 19 21 21 23 25 28 37 32 29 19 20 23 21 19 20 17 18 15 13 13 12 13 15 11 25 32
15 13 39 34 29 25 26 35 13 7 4 4 14 10 13 2 5 12 20 22 23 23 21 24 34 32 31 28 23 23 19 18 17 15 15 14 12 12 10 7 14 14 19 37
6 10 12 23 45 31 20 33 33 2 3 1 8 7 15 14 20 22 21 18 24 26 21 21 32 32 32 34 27 24 20 17 15 12 11 11 10 10 11 7 9 19 15 41
12 7 8 7 19 37 36 26 13 13 6 7 4 6 6 11 8 16 18 19 22 27 20 22 24 30 33 37 32 25 21 19 14 9 6 7 8 10 9 9 9 16 20 28
15 16 11 9 8 12 29 33 22 21 10 5 2 6 10 17 20 25 16 14 19 26 19 13 16 15 28 33 29 25 23 21 14 8 5 6 6 7 8 8 8 14 16 22
2 8 16 22 11 7 15 27 32 16 13 15 11 12 5 12 16 18 16 16 16 12 14 9 4 11 20 27 28 25 25 21 16 11 8 6 6 5 5 6 6 8 12 19
10 1 5 15 14 5 2 7 20 34 24 16 7 6 16 15 18 20 20 16 17 15 8 15 3 12 17 27 28 24 24 22 17 15 12 9 8 7 6 4 3 5 6 10
10 13 14 5 5 7 3 6 1 20 24 27 13 9 9 11 12 11 13 15 16 13 8 20 12 1 10 26 27 24 25 23 20 18 16 13 11 10 9 9 7 5 6 7
13 15 14 14 17 8 7 3 10 3 19 20 13 14 14 15 19 11 10 8 5 10 14 11 18 18 6 18 26 22 23 22 22 21 19 16 14 13 12 12 10 9 9 9
11 8 10 13 18 17 17 6 6 4 4 4 9 13 10 8 13 8 2 2 3 6 13 6 9 7 15 5 19 24 21 20 21 22 21 19 18 17 15 14 14 13 13 12
7 8 9 3 12 24 3 4 3 0 1 3 5 5 8 8 11 6 4 5 4 6 8 14 20 10 7 6 2 31 27 15 18 22 21 18 21 21 20 20 19 18 17 17
13 9 4 4 3 6 14 2 10 5 11 9 7 12 13 12 11 11 9 5 2 1 6 9 10 14 16 10 7 9 41 28 16 18 23 18 16 18 17 19 23 23 23 22
13 11 5 2 2 6 9 3 3 3 2 6 13 15 16 19 15 12 15 9 6 7 9 9 6 6 10 7 7 9 7 16 35 27 24 38 25 27 28 21 19 21 28 28
8 14 7 2 0 1 2 3 3 6 5 4 9 12 13 10 9 5 4 9 8 9 9 9 11 12 17 17 18 19 17 15 15 16 20 20 22 30 30 29 36 32 21 30
14 6 15 12 4 6 10 9 4 3 5 9 4 6 9 2 1 2 4 6 9 10 10 12 15 14 14 14 14 16 18 19 20 22 24 25 25 23 30 33 30 33 42 29
9 6 4 9 4 9 7 4 4 5 9 13 10 8 7 5 1 5 7 8 8 9 10 11 12 12 12 10 11 12 12 15 20 23 25 26 30 31 29 28 38 38 34 27
3 17 17 11 7 2 9 5 9 11 10 11 8 6 2 3 6 8 8 8 8 9 11 11 9 10 11 9 8 10 14 16 17 16 22 27 30 36 35 32 27 31 38 40
22 21 7 13 16 15 11 13 7 10 14 14 11 5 3 4 8 5 8 9 10 10 11 12 13 13 12 10 10 11 10 11 15 18 21 23 27 31 36 38 35 30 33 38
12 27 21 19 7 11 19 10 9 10 13 16 10 6 5 6 9 10 11 9 11 13 12 12 13 13 15 16 14 15 14 13 12 12 15 21 26 28 33 35 35 32 31 35
21 27 15 1 12 5 9 13 11 10 12 10 13 7 5 8 7 7 8 9 11 12 13 14 14 13 14 13 15 16 17 17 17 17 15 14 22 26 28 31 31 32 33 35

GFSCGP_700_spd_111.txt.gz
Wind_Speed
27 27 45 43 43 43 37 29 29 22 13 18 26 36 36 34 36 34 32 31 31 29 27 25 28 26 27 25 22 24 26 25 25 23 22 21 25 18 19 16 17 23 18 23
32 41 38 35 37 39 40 39 45 33 33 28 34 45 40 41 39 36 33 33 33 33 30 28 28 29 29 29 27 26 25 23 24 23 22 22 25 21 20 18 18 24 23 19
39 53 29 31 35 37 38 41 37 35 21 25 32 50 39 36 30 29 29 26 28 30 32 33 32 33 32 31 26 26 25 25 26 24 23 22 25 22 22 16 18 21 22 28
28 50 44 31 33 28 32 32 30 28 20 19 12 17 12 12 23 23 18 21 24 27 28 31 32 33 29 27 24 26 25 24 26 25 22 22 25 22 19 17 19 22 23 24
36 25 26 43 47 26 25 18 19 18 23 19 25 14 11 6 11 5 13 18 19 23 24 27 29 33 30 29 28 26 28 31 25 22 21 22 23 21 17 19 21 24 24 25
37 32 25 34 35 39 34 17 11 11 15 10 23 20 9 13 10 17 9 11 13 12 14 19 26 32 32 31 25 26 28 28 23 19 18 21 20 18 16 18 20 23 24 25
26 28 32 29 29 26 28 20 8 8 7 9 9 19 25 10 12 10 12 9 13 16 13 12 18 28 33 34 27 20 24 25 20 17 18 19 16 14 15 15 16 16 18 23
15 13 21 36 31 29 33 33 14 9 7 8 13 12 12 5 23 14 10 15 16 14 15 16 17 21 29 36 30 25 22 23 19 17 18 17 12 11 12 12 14 12 12 20
8 11 12 15 39 29 27 35 33 7 5 4 10 17 13 15 18 15 15 14 12 16 18 18 20 22 26 34 35 30 23 22 20 16 17 14 11 11 7 9 11 9 9 12
10 9 9 5 20 33 23 33 19 16 9 7 5 6 7 18 19 19 16 13 15 25 21 22 25 24 26 32 36 32 24 25 20 17 17 13 11 7 5 5 6 8 13 11
17 7 8 8 15 31 35 21 23 22 13 10 9 7 14 12 15 14 16 16 18 19 19 20 23 22 23 31 34 30 29 28 22 18 17 13 10 7 4 3 2 7 10 10
19 5 15 19 12 11 27 38 28 23 18 18 11 8 10 14 19 16 13 14 14 18 25 23 22 18 17 23 30 26 34 27 21 20 18 13 11 8 6 4 5 10 8 12
32 8 7 11 15 5 10 9 29 32 15 21 12 10 17 15 9 10 9 8 11 15 22 19 16 12 9 13 19 28 30 25 20 20 18 15 12 10 8 6 6 9 14 16
27 17 16 3 3 5 10 6 7 23 27 30 17 13 13 18 18 12 7 9 12 12 13 14 15 6 1 9 19 28 26 23 22 22 20 16 13 11 10 8 7 7 11 14
19 11 23 14 15 9 5 3 7 9 20 23 32 25 19 16 13 10 10 9 7 7 7 10 6 7 11 7 16 20 23 21 22 23 21 19 17 15 13 11 9 8 8 11
12 9 16 6 15 13 4 2 3 6 6 10 15 20 22 20 17 12 9 6 5 3 6 8 14 26 4 14 12 16 17 21 23 22 22 19 17 15 14 13 12 11 9 8
18 13 18 7 16 6 10 4 5 7 4 5 8 13 18 18 18 15 12 8 6 4 4 10 7 14 14 4 10 9 18 15 14 19 21 20 17 16 15 14 14 13 12 12
15 15 12 12 16 3 3 12 4 7 1 7 6 8 13 17 18 15 12 8 5 3 3 8 5 7 15 16 20 11 6 18 17 15 16 15 15 14 10 10 14 14 14 14
8 8 7 5 11 8 6 6 5 4 3 5 11 9 9 13 13 15 11 6 8 6 4 6 4 6 6 10 15 14 9 5 24 18 14 14 17 15 13 12 12 13 16 19
8 7 7 6 4 2 6 6 5 3 2 3 5 13 14 17 17 11 9 9 6 11 9 9 8 10 12 15 14 13 10 11 9 24 18 17 23 24 17 28 30 26 25 22
11 4 12 12 6 9 7 7 5 2 3 4 4 13 13 8 13 7 3 1 4 7 8 9 10 11 13 15 13 12 11 10 14 13 20 23 20 24 32 30 38 33 31 27
7 6 2 5 5 8 4 1 1 5 4 8 12 12 11 9 6 3 2 3 5 6 6 7 9 9 10 10 10 9 10 11 10 16 25 28 29 29 30 31 32 39 40 34
6 9 13 8 7 8 8 4 3 3 7 9 11 13 7 5 4 4 4 4 5 6 8 8 9 8 8 9 10 9 7 10 12 15 15 21 28 32 37 37 36 32 39 39
13 15 15 18 5 18 8 9 9 7 9 10 13 12 5 1 2 3 5 6 5 7 9 9 10 10 10 11 10 11 12 10 11 13 14 19 23 27 32 36 38 35 31 36
14 20 18 7 7 6 13 14 7 10 10 17 16 12 7 2 4 7 6 6 6 8 9 9 9 9 9 10 10 10 12 13 12 12 14 14 19 26 30 34 37 38 36 32
19 25 24 7 9 7 8 10 9 9 10 15 20 17 9 4 3 3 5 6 6 7 8 9 9 10 10 11 8 8 8 8 10 13 14 15 17 19 25 30 33 34 34 34

GFSCGP_700_spd_114.txt.gz
Wind_Speed
22 24 39 30 32 35 31 32 32 26 18 19 24 30 27 25 28 28 29 32 29 27 28 27 30 30 28 28 27 28 27 30 29 28 25 23 23 22 21 20 18 19 22 23
21 40 42 28 29 32 31 34 40 30 25 24 27 39 32 31 32 31 30 29 30 30 29 29 31 33 29 30 29 30 26 30 29 27 25 24 24 22 22 22 21 21 23 27
25 55 16 28 29 30 34 35 32 28 22 26 27 45 34 34 34 32 32 31 29 30 30 32 32 33 33 30 30 31 31 30 28 25 26 25 23 23 23 22 21 20 24 27
26 31 29 32 35 31 33 28 26 25 19 27 18 31 21 11 11 14 16 18 23 29 30 29 28 32 35 34 33 33 32 30 30 27 26 25 23 22 23 24 20 21 24 24
50 30 16 22 47 26 39 26 21 15 19 21 26 19 18 20 20 13 16 20 25 24 21 22 24 27 33 36 33 32 30 30 29 28 26 24 24 23 24 24 18 19 25 27
43 35 35 34 21 32 28 18 16 15 16 19 29 24 18 22 12 11 12 12 11 10 11 12 14 22 28 33 32 33 31 30 30 31 29 25 22 22 24 21 17 19 23 25
33 36 34 33 32 25 33 27 13 12 12 17 15 18 30 8 12 11 13 11 10 8 10 10 10 18 23 27 28 35 33 30 29 33 29 24 21 21 22 18 18 19 22 25
25 28 28 29 35 35 33 39 20 19 13 15 16 13 16 15 18 18 14 13 10 8 5 5 7 11 14 18 24 35 33 27 27 28 26 23 21 20 19 17 16 19 21 17
24 16 21 23 31 33 36 37 42 25 18 11 20 21 16 15 19 22 21 15 11 10 11 15 15 13 12 16 21 30 35 31 26 26 27 22 19 18 17 15 15 17 16 15
28 27 17 13 19 26 33 31 33 28 19 20 22 24 14 19 23 20 22 17 13 13 17 15 16 17 16 14 19 27 35 35 29 27 26 21 18 16 16 13 15 13 10 11
32 16 11 6 12 28 30 28 35 34 28 15 14 17 16 15 22 20 16 16 15 14 14 14 22 22 19 15 16 24 34 36 31 31 26 21 16 15 15 13 14 11 10 14
24 14 14 16 7 12 32 28 35 29 30 30 20 11 15 18 18 17 18 15 13 9 13 20 19 21 19 16 17 23 29 35 33 30 26 21 17 15 15 13 12 10 10 11
29 14 21 7 11 8 13 31 28 32 26 28 20 16 13 9 19 18 15 11 6 8 11 16 19 20 19 18 17 20 28 32 33 30 24 21 17 15 15 13 11 10 11 13
23 22 16 12 23 1 12 24 18 32 29 26 26 23 12 11 14 18 15 7 6 7 9 13 16 15 17 13 9 17 21 25 31 29 25 24 20 17 16 13 11 9 11 12
21 16 18 21 19 8 3 13 16 19 30 26 25 21 17 17 16 15 11 9 8 9 8 8 9 6 10 12 12 15 21 28 28 25 29 25 21 20 19 15 12 9 9 11
15 13 20 22 15 11 4 4 5 11 22 24 19 27 22 16 17 16 12 12 9 8 4 3 8 8 10 14 17 19 24 29 27 31 28 23 23 21 20 17 15 13 10 10
12 12 20 9 17 6 5 7 1 5 5 6 15 12 20 23 21 16 15 15 12 9 4 5 6 4 8 6 5 17 24 28 33 32 25 24 23 22 21 19 18 16 13 12
17 11 9 16 14 3 4 10 1 3 3 4 6 7 13 22 24 24 22 17 14 10 7 4 6 5 8 6 6 9 15 17 18 26 26 26 25 23 22 22 20 18 16 14
14 6 7 8 13 4 5 14 10 8 5 5 7 11 14 21 21 20 17 15 11 9 9 9 9 10 11 12 11 9 11 13 16 21 22 21 21 22 24 20 18 17 16 17
12 6 6 10 6 3 5 9 9 9 4 1 9 9 12 11 11 17 17 10 7 9 11 11 12 14 15 13 11 12 15 14 7 6 16 18 19 19 21 22 21 19 14 14
10 6 3 7 5 7 11 13 7 4 9 1 9 15 15 15 18 15 11 9 7 9 10 11 11 13 13 12 10 10 12 7 14 15 12 23 20 18 23 21 21 25 30 24
7 7 3 5 4 5 10 4 9 12 11 2 7 8 13 10 9 6 4 2 4 4 4 7 8 9 10 10 9 9 7 9 12 14 14 14 21 21 20 19 26 32 29 28
4 9 13 7 8 15 15 9 13 11 10 12 10 11 10 8 5 3 2 1 1 3 4 6 7 8 9 10 10 9 10 8 9 12 15 14 22 23 26 29 28 31 26 25
15 13 12 21 5 13 19 15 8 10 6 6 14 13 9 6 4 2 2 4 3 4 5 6 7 9 7 9 9 10 11 13 11 10 13 16 20 23 28 33 36 36 35 34
11 13 26 12 12 15 10 13 12 10 11 7 11 13 10 6 2 1 2 3 4 6 8 8 7 7 8 10 7 7 7 9 13 14 13 13 16 20 26 30 34 35 37 41
15 19 24 9 8 7 8 7 9 8 12 14 20 18 13 9 6 3 3 4 6 7 9 9 9 7 7 8 9 6 6 6 8 10 11 12 13 15 18 24 30 33 35 34

GFSCGP_700_spd_117.txt.gz
Wind_Speed
15 25 44 30 31 38 32 34 37 33 25 25 30 32 30 27 29 31 30 28 26 25 23 25 25 25 27 30 37 34 33 29 29 31 30 28 27 24 24 24 22 23 22 21
22 38 36 31 34 37 36 37 42 40 34 32 34 34 31 29 32 32 32 31 31 29 27 26 25 27 30 34 35 35 32 31 30 30 29 31 29 26 26 26 24 23 25 24
27 44 26 30 33 40 43 41 43 36 31 28 31 41 37 36 35 36 37 35 32 30 27 26 26 27 33 35 36 35 33 32 32 29 32 33 31 29 27 24 25 26 27 25
35 37 34 32 38 39 37 39 37 34 30 31 29 31 32 30 28 28 30 32 31 29 27 27 28 27 26 33 36 38 34 33 32 30 31 31 30 27 25 26 26 26 28 26
39 38 35 38 33 27 45 34 33 29 29 31 33 32 26 21 27 23 18 17 18 19 19 19 19 20 22 26 36 35 35 35 33 33 32 31 30 27 27 26 27 26 28 26
30 33 32 41 43 38 31 30 34 28 29 23 37 35 33 27 17 15 15 16 17 13 11 11 13 19 20 30 32 30 34 36 33 34 33 32 30 28 26 25 27 26 27 26
39 28 26 38 40 37 35 30 23 20 20 20 35 33 34 18 19 19 14 13 11 9 7 6 7 15 20 26 27 27 31 36 32 32 32 31 29 28 26 26 26 27 27 26
29 43 26 29 28 38 40 37 27 24 16 23 33 24 31 24 26 16 16 15 11 8 6 8 7 9 13 16 25 25 30 36 34 31 30 30 29 28 27 25 26 27 27 26
32 35 52 30 24 26 35 43 39 39 29 20 22 29 26 20 18 23 17 14 11 6 9 9 10 9 12 12 16 24 29 32 35 33 31 30 27 28 25 24 25 26 26 24
30 51 32 30 18 24 30 33 36 38 23 23 21 25 29 24 20 25 20 14 10 10 11 8 9 10 14 14 13 18 25 28 34 34 30 28 27 28 25 23 24 24 24 23
35 18 39 26 5 14 21 32 33 30 36 18 15 21 23 20 23 27 21 16 11 7 11 9 9 14 13 14 16 16 21 26 31 35 30 29 30 27 23 22 23 22 22 22
22 26 26 40 16 9 12 27 33 23 28 33 28 23 7 20 19 21 23 17 12 8 11 8 14 16 15 14 15 16 19 25 30 32 32 31 31 27 23 21 22 20 20 21
25 16 24 26 17 23 13 17 27 31 30 30 21 24 9 10 18 25 25 18 10 9 7 12 14 13 16 15 14 15 20 24 29 32 34 33 32 26 22 22 22 17 18 18
17 21 27 22 28 28 35 23 23 23 31 31 31 27 11 18 19 17 11 12 10 8 7 9 12 15 15 13 9 12 16 22 25 32 35 36 31 27 22 23 19 16 16 15
20 27 23 28 29 24 24 13 20 16 20 26 26 26 20 16 21 20 18 15 13 11 8 10 11 11 13 15 10 14 16 21 26 32 34 34 31 27 22 25 19 16 14 11
19 18 22 29 13 22 16 0 17 18 27 22 22 25 16 18 24 27 24 19 18 12 9 7 8 11 11 13 10 16 21 24 25 30 36 32 31 25 27 27 20 18 14 11
18 15 22 22 18 26 5 13 4 7 9 22 22 17 17 18 25 23 19 18 17 12 10 8 8 9 8 9 10 17 20 26 25 29 33 34 30 25 31 27 23 20 16 12
17 16 16 21 21 3 10 15 10 9 3 3 19 21 20 9 15 13 15 17 16 14 12 10 7 8 10 11 14 12 15 20 27 33 32 30 27 31 33 28 25 22 20 16
11 11 11 10 19 5 6 15 18 15 10 9 11 12 18 20 21 19 21 21 14 11 11 12 12 13 12 13 14 15 16 14 19 25 38 36 32 37 34 31 28 25 23 19
10 13 7 13 9 4 16 20 17 14 6 16 11 10 17 12 12 18 15 14 11 10 10 12 14 15 16 16 16 15 15 16 17 23 16 22 30 33 33 32 29 27 24 22
13 9 9 10 6 7 18 22 12 5 18 28 10 11 7 13 7 18 16 14 9 7 10 12 13 13 14 16 15 13 13 13 13 18 20 8 12 29 30 30 30 31 31 27
8 11 6 9 5 4 23 22 17 21 20 20 8 5 15 7 10 9 8 4 1 4 6 8 9 9 10 11 12 13 13 12 11 11 19 29 13 18 25 31 31 32 31 28
4 12 11 7 18 28 25 20 17 17 16 4 6 4 10 12 6 8 7 4 1 2 4 6 7 8 9 9 10 12 12 12 11 10 11 11 9 15 24 25 28 36 32 30
14 11 10 20 13 29 21 20 16 14 16 11 3 7 6 3 4 3 3 3 3 4 5 6 7 8 8 7 10 9 10 12 12 11 12 10 10 13 15 18 20 21 24 23
16 12 17 19 17 14 15 16 15 13 11 12 13 8 6 4 2 2 2 3 3 4 6 7 7 8 8 9 10 8 8 9 9 10 12 12 11 10 15 17 20 23 24 24
9 14 16 20 14 14 14 12 11 11 11 11 15 13 11 8 6 4 4 4 5 6 6 7 7 8 9 10 10 9 8 7 8 9 10 12 12 12 12 14 16 20 23 26

GFSCGP_700_spd_120.txt.gz
Wind_Speed
13 24 24 24 28 35 36 36 40 43 35 34 40 36 37 32 29 31 31 26 30 29 27 27 25 30 36 32 32 39 43 44 35 30 30 29 30 28 27 21 22 23 21 20
21 28 24 25 30 36 40 43 47 48 41 35 36 40 41 32 30 31 33 33 34 30 25 25 27 29 30 31 35 39 43 45 37 32 31 29 32 28 28 26 25 24 22 23
25 30 29 30 33 36 40 39 47 45 40 32 31 36 40 43 41 35 40 38 31 31 32 34 33 32 33 35 39 43 43 38 36 34 35 31 30 31 32 29 26 24 23 24
18 18 29 30 34 33 44 40 44 40 38 33 29 25 36 37 38 40 43 39 41 37 33 31 29 30 31 34 39 42 41 40 38 36 33 31 32 34 32 29 26 26 25 26
31 29 30 33 37 36 44 42 33 35 42 34 35 27 43 37 39 38 38 40 34 34 35 34 31 29 31 34 39 43 39 37 42 35 32 31 32 31 31 29 28 29 27 27
29 30 31 34 30 28 34 37 37 35 34 26 33 34 30 35 38 30 23 26 25 20 29 29 28 26 25 28 30 33 32 30 40 36 32 31 33 31 33 31 30 28 29 29
34 29 29 16 34 35 31 31 21 23 20 14 37 35 33 17 31 34 23 21 18 19 18 16 12 18 23 30 31 33 32 30 36 35 33 32 34 34 33 31 30 30 30 30
25 42 25 34 37 33 37 29 26 22 15 17 35 28 40 34 28 18 10 18 19 14 17 17 18 20 22 25 25 26 29 31 38 30 31 33 34 34 32 30 30 31 29 29
28 51 45 27 29 31 20 25 27 34 38 20 25 27 35 34 28 24 18 19 16 14 16 19 17 9 13 14 15 20 23 29 31 29 32 34 31 31 32 32 30 31 28 28
27 45 33 31 31 13 14 20 21 30 21 20 22 31 24 27 26 22 24 20 22 24 17 19 10 9 11 16 17 18 19 24 27 30 32 33 32 32 33 31 31 30 28 26
29 18 43 34 38 22 23 19 24 25 32 14 13 20 27 14 30 30 29 27 28 19 25 14 10 10 10 11 17 18 20 21 25 27 31 33 34 31 32 31 31 29 26 26
17 25 27 42 34 25 21 23 15 20 27 27 26 31 26 20 12 24 25 27 29 23 22 14 11 10 12 13 15 18 21 21 24 27 29 33 33 31 31 32 30 27 25 26
26 12 28 35 18 28 32 29 26 20 26 26 16 30 29 17 13 26 35 33 24 30 23 15 10 9 9 12 15 17 19 20 23 27 27 31 33 33 31 31 29 25 24 23
18 17 24 21 31 37 40 40 29 18 15 18 22 27 24 11 15 11 30 29 16 26 13 9 6 8 9 10 11 13 11 13 19 25 29 31 32 33 34 33 29 25 22 21
17 31 30 27 30 32 26 32 19 16 14 11 23 20 14 13 7 20 26 21 17 21 16 9 5 7 10 12 11 9 10 10 13 19 26 31 33 35 36 32 28 24 20 19
21 26 29 33 27 22 33 23 15 13 12 16 16 19 15 11 22 15 16 28 34 26 20 8 3 7 10 11 11 11 10 11 15 19 23 28 31 35 34 31 27 24 17 21
25 22 24 31 22 33 9 20 19 15 6 10 13 15 14 12 11 19 17 15 26 16 15 7 4 6 9 11 11 12 12 13 20 21 25 27 32 36 36 32 29 22 21 23
20 20 19 24 26 5 15 22 21 18 19 22 5 14 9 13 11 10 11 10 13 9 6 4 3 4 8 11 12 12 12 13 14 20 25 28 29 35 33 32 26 25 27 25
10 13 13 9 18 17 9 30 30 25 21 33 24 8 6 10 8 12 5 9 11 9 7 4 5 7 11 12 14 14 14 15 15 16 23 30 33 33 33 32 28 27 31 26
7 13 15 17 10 5 23 30 24 12 4 38 23 14 11 17 12 13 12 8 5 9 5 4 6 10 13 14 15 15 15 14 14 13 17 18 34 34 31 33 28 31 33 29
14 12 13 17 11 3 20 36 22 20 21 32 28 13 7 9 16 17 10 7 7 3 2 5 9 11 12 12 13 13 13 13 12 14 14 14 21 38 31 31 35 33 34 30
9 10 9 12 10 5 31 30 22 20 18 25 29 9 14 12 11 6 6 3 3 0 3 6 7 8 9 11 11 12 13 13 13 12 14 15 16 21 22 29 31 34 37 33
4 12 12 8 13 17 28 24 19 20 18 20 18 10 10 8 9 12 9 8 5 3 4 5 7 7 9 9 9 11 11 12 12 13 13 14 16 16 13 28 39 30 34 33
15 12 9 16 15 23 20 14 15 16 13 13 19 7 6 4 8 7 5 4 4 3 5 6 6 7 8 8 9 10 9 10 11 11 11 15 15 14 11 11 19 14 32 27
19 17 16 9 10 14 19 14 10 12 11 7 12 17 10 3 2 5 5 5 6 6 7 7 8 8 9 10 10 10 9 9 8 9 8 10 12 13 12 8 5 21 17 12
16 8 14 15 13 19 22 22 15 10 9 7 7 10 13 7 2 2 3 5 6 8 8 8 8 8 9 9 10 10 10 9 9 9 9 8 9 11 9 8 12 12 4 10

GFSCGP_700_spd_123.txt.gz
Wind_Speed
16 17 19 23 28 34 36 34 38 49 47 39 41 43 41 37 45 29 30 39 34 28 28 30 25 31 32 33 34 38 40 40 40 40 40 31 28 26 26 26 27 26 22 19
21 20 14 24 32 31 35 38 43 44 41 34 37 42 46 40 44 37 35 31 27 33 25 30 27 30 31 38 41 39 44 44 42 42 42 36 28 26 26 27 30 28 25 23
19 25 14 20 29 30 37 38 39 42 47 43 37 44 49 44 43 42 46 38 34 32 28 32 30 22 32 32 37 41 40 39 40 41 43 41 33 29 27 30 31 30 28 26
17 8 27 28 31 31 41 35 37 41 40 35 33 26 40 42 42 41 48 44 40 37 35 29 33 31 29 34 37 39 40 41 40 42 46 41 33 30 26 28 31 32 29 27
24 24 27 32 33 33 26 29 36 38 44 38 41 24 52 35 38 44 40 35 42 37 40 40 31 31 37 38 37 38 39 41 44 45 47 44 35 30 29 30 34 34 30 30
27 28 29 29 26 26 36 41 38 37 36 23 32 30 47 34 43 43 39 40 39 39 34 28 40 30 33 31 35 41 43 43 45 46 44 42 34 32 30 30 32 33 32 32
36 26 29 17 27 33 28 30 10 8 10 14 25 31 35 21 27 30 28 27 18 23 30 36 38 34 36 38 35 34 37 41 42 43 39 35 34 34 30 31 30 32 32 31
15 40 28 33 27 33 41 29 19 7 4 13 28 23 39 31 45 30 21 17 22 32 30 33 34 40 43 37 35 32 31 35 40 38 30 32 33 34 32 32 32 31 31 31
24 25 42 24 23 23 23 15 24 25 24 16 18 33 28 36 39 35 21 26 19 18 30 35 38 37 39 39 37 37 37 40 40 36 33 33 33 34 33 32 33 30 31 32
20 39 34 24 32 15 28 21 12 5 4 5 12 25 31 22 26 25 28 28 28 31 27 29 29 30 30 25 26 26 27 30 32 31 32 33 32 33 33 29 31 29 30 32
25 18 42 28 33 32 31 29 27 12 15 3 5 16 21 21 22 21 21 37 33 33 27 22 22 19 20 19 18 21 25 26 26 28 30 33 33 32 32 31 30 31 33 32
16 26 25 43 27 10 12 26 23 17 5 21 14 23 23 12 29 21 30 36 34 29 26 23 22 22 17 14 16 18 21 23 26 27 30 31 33 34 35 34 35 35 34 31
20 12 19 30 19 14 41 45 38 33 14 15 10 17 13 28 12 7 32 37 33 29 24 22 21 14 10 12 14 17 20 22 24 26 29 29 31 36 34 35 35 34 33 29
20 14 16 17 33 40 46 47 40 30 17 12 30 21 15 20 15 15 11 15 21 24 18 18 15 11 9 8 9 11 12 16 19 23 25 27 30 37 40 35 34 33 31 29
13 20 24 29 35 35 37 33 38 31 19 17 25 20 18 18 16 11 20 13 4 17 8 25 14 10 5 3 6 8 9 7 8 11 19 25 27 28 31 33 30 33 32 28
21 17 27 38 33 29 32 17 34 22 12 9 19 11 16 16 10 14 14 14 12 15 22 21 12 7 4 1 5 8 7 6 6 8 11 20 29 32 33 30 29 33 31 27
26 26 26 33 32 32 6 35 31 20 42 26 28 23 8 15 11 11 11 8 12 11 12 12 8 4 3 6 6 7 9 10 8 16 16 17 18 24 33 33 33 35 31 27
29 26 25 25 25 4 8 30 23 23 21 35 28 10 7 9 7 8 5 3 7 17 13 6 2 3 4 10 9 9 10 10 9 8 11 16 18 22 24 29 32 28 27 27
11 10 10 6 13 20 12 35 32 25 11 37 38 5 15 11 3 5 1 4 5 4 4 5 5 5 9 10 14 12 12 12 11 10 8 9 23 25 25 31 29 32 25 27
15 10 9 12 7 2 27 34 30 13 4 38 28 20 5 11 6 13 6 5 9 5 7 6 5 6 10 12 12 11 11 10 10 10 9 11 13 20 30 33 30 31 23 27
17 15 11 11 6 3 24 36 21 23 21 29 18 21 15 15 16 13 11 10 6 6 5 2 2 4 8 10 11 11 11 10 9 9 8 9 10 10 17 29 32 37 40 37
10 11 9 9 7 6 32 31 24 16 17 16 17 12 13 10 7 6 3 5 8 5 4 3 3 4 5 9 10 10 11 10 9 9 9 9 10 11 11 18 33 32 41 38
6 12 11 11 4 20 19 21 16 11 12 14 12 16 5 8 11 9 9 7 6 4 4 4 4 5 6 7 8 11 10 9 9 9 9 9 9 10 10 8 20 32 37 28
12 12 12 9 11 16 17 17 14 9 8 6 11 11 14 6 5 6 10 9 8 6 6 6 6 7 7 8 8 10 11 9 8 8 9 9 10 9 10 10 6 22 32 32
15 15 11 6 7 12 17 19 15 10 8 9 10 9 12 11 7 3 5 10 9 7 7 7 7 7 8 8 8 9 10 10 9 8 8 10 11 10 7 9 6 7 23 32
13 12 12 11 12 11 14 20 20 14 10 8 7 9 8 8 8 5 1 7 8 10 8 9 9 9 9 10 9 8 8 8 9 10 10 9 8 9 9 7 8 10 6 11

GFSCGP_700_spd_126.txt.gz
Wind_Speed
13 12 11 10 14 20 26 31 40 50 48 37 40 49 48 42 38 42 45 45 45 41 34 31 46 47 37 46 54 55 49 43 41 39 33 32 30 29 24 26 28 26 26 26
13 4 15 16 17 23 28 37 44 52 47 36 42 49 55 49 48 44 44 43 46 48 36 36 36 33 36 38 45 51 43 43 42 40 38 35 31 31 26 25 26 28 29 29
16 10 8 19 26 31 40 29 36 37 51 52 48 54 50 58 52 51 48 46 45 44 43 37 35 31 31 40 37 39 41 41 41 37 42 37 33 33 30 28 29 29 30 30
9 12 24 26 32 31 35 29 32 41 44 34 41 33 56 53 54 55 54 48 42 42 51 36 39 32 30 33 37 36 42 42 40 39 40 37 35 34 32 28 28 29 30 32
11 23 28 32 31 28 30 30 42 45 46 40 53 28 56 40 45 52 49 44 39 38 47 49 38 35 27 26 31 37 37 38 40 38 37 34 34 33 33 30 29 31 30 33
18 25 20 20 24 23 29 34 45 44 27 13 55 34 46 44 43 41 35 33 37 36 36 39 33 45 32 28 30 34 39 39 39 35 34 34 34 36 36 36 34 32 31 33
29 7 18 6 37 26 26 32 9 7 2 12 29 27 42 35 30 29 25 28 25 24 25 39 38 42 36 39 31 37 39 39 36 35 34 35 37 38 37 36 35 32 32 33
16 10 17 34 30 26 39 17 12 7 9 19 35 13 25 27 28 32 27 29 30 29 30 22 35 43 43 44 40 37 34 35 38 34 34 36 39 37 36 34 34 33 31 30
15 10 35 28 19 29 19 25 22 21 23 14 10 20 34 22 19 15 19 29 29 24 26 24 25 30 32 32 38 38 40 38 36 34 34 35 36 37 35 33 34 33 31 30
16 35 29 29 32 10 16 21 18 19 7 6 7 17 17 29 25 24 31 27 29 22 29 29 26 27 29 34 36 35 36 35 34 35 35 37 37 37 37 34 33 32 31 28
24 19 30 36 29 24 17 23 18 20 14 7 6 5 25 29 23 26 34 12 19 14 23 26 26 26 26 28 27 29 31 33 33 35 37 36 38 43 41 34 33 33 29 28
14 17 22 38 13 1 8 26 21 12 16 17 12 9 14 22 29 32 13 5 20 24 26 25 25 21 20 23 24 22 23 26 29 32 32 32 32 33 29 31 28 31 27 29
15 11 20 24 8 12 41 34 39 29 29 22 11 11 25 26 29 25 15 14 20 26 27 25 18 19 20 18 18 21 23 24 25 29 33 32 33 32 27 32 32 30 32 32
21 18 20 15 30 35 40 41 39 30 29 12 15 21 22 22 25 30 27 18 8 10 18 23 25 20 19 15 14 15 17 20 22 22 27 31 32 34 27 29 33 34 34 35
13 19 25 26 30 29 27 27 30 26 34 19 22 15 11 17 19 20 21 14 22 2 12 22 17 17 14 10 7 9 8 10 12 12 14 22 19 22 26 29 29 34 34 33
13 20 26 34 26 24 24 24 22 21 38 38 19 14 13 9 10 15 13 10 13 10 15 19 22 13 10 8 4 4 4 3 6 6 8 13 18 23 26 35 33 28 34 34
15 17 19 20 23 27 3 25 21 19 25 38 31 21 8 3 12 12 9 13 17 20 6 15 15 10 9 8 6 5 6 7 6 5 11 12 19 21 29 23 23 26 29 35
16 16 16 19 19 2 6 24 20 16 20 32 30 9 14 11 18 16 9 7 16 16 7 10 10 9 6 5 4 4 5 6 7 7 5 11 17 21 19 25 27 36 31 26
11 8 8 6 8 13 7 25 29 18 16 30 27 25 12 10 7 7 3 1 1 4 6 1 3 3 4 5 6 7 7 6 6 8 8 7 5 17 21 22 25 25 29 28
6 5 6 6 4 2 7 26 19 5 14 23 22 23 14 2 4 4 3 2 4 2 2 2 3 3 4 6 8 9 9 9 8 7 9 9 9 10 14 28 29 31 29 28
12 3 8 8 4 3 14 26 17 7 10 16 18 21 16 16 12 7 8 7 2 5 5 1 2 5 7 8 8 8 9 10 10 9 9 10 9 8 9 15 31 33 29 29
5 5 5 5 4 3 20 21 16 11 9 11 12 17 13 11 9 5 4 1 2 7 4 2 3 3 5 6 7 8 9 9 9 10 9 11 11 9 8 9 15 27 32 34
3 6 5 4 5 9 14 17 17 11 10 11 9 13 16 13 9 5 7 10 8 6 3 1 2 2 4 6 7 8 9 9 8 8 8 8 11 10 10 11 12 15 26 31
6 8 10 11 8 10 11 14 16 13 9 10 10 10 14 13 7 1 7 8 7 6 6 6 4 5 6 6 6 7 9 9 9 8 8 8 8 9 11 12 13 11 11 24
12 14 12 8 9 11 8 10 14 13 9 10 10 10 10 10 10 5 2 8 8 8 8 8 7 7 7 6 6 7 9 9 9 9 9 9 9 9 10 12 12 12 6 11
15 16 12 10 5 7 10 11 14 17 13 11 11 10 9 7 7 9 6 4 8 9 8 8 7 6 5 6 6 6 7 8 9 10 10 10 10 9 6 8 10 10 9 7

GFSCGP_700_spd_129.txt.gz
Wind_Speed
9 9 8 9 11 14 20 28 36 44 45 45 43 51 59 58 55 60 56 55 52 52 49 45 42 37 47 46 42 48 44 40 38 40 38 35 33 28 27 22 19 25 28 27
7 3 9 11 14 20 24 33 41 52 41 40 49 60 59 57 60 54 56 59 58 54 53 49 44 42 37 52 49 42 53 50 48 47 44 39 34 31 31 30 23 21 27 31
9 8 7 14 25 29 25 27 36 34 46 48 46 55 58 50 50 50 50 50 54 61 54 52 49 46 39 38 46 43 45 52 55 55 47 44 41 39 37 34 28 23 24 29
3 7 14 21 20 23 33 29 29 38 43 31 52 26 59 51 51 48 47 48 43 56 56 50 45 45 42 36 34 42 46 44 53 52 54 47 41 42 39 33 27 22 23 27
6 15 18 15 15 30 27 25 34 41 42 40 49 12 36 53 55 56 41 38 41 36 49 49 39 40 43 36 39 31 39 44 42 48 46 41 42 39 39 35 26 25 24 26
10 7 8 14 25 22 24 33 33 31 19 6 25 13 44 48 44 46 38 31 17 17 25 31 34 29 43 50 47 29 30 37 42 45 42 39 37 38 36 35 30 26 28 31
11 2 9 22 29 24 29 32 8 7 4 10 31 28 30 44 46 37 34 25 17 13 19 25 29 33 42 38 45 30 22 28 39 40 41 39 36 32 28 28 27 27 30 32
9 7 8 26 17 29 27 14 5 6 9 21 37 8 25 32 40 31 26 22 20 19 21 26 27 31 48 32 34 35 26 24 37 27 31 31 28 28 31 28 27 29 32 33
7 2 17 14 28 14 10 13 20 18 26 15 11 25 33 39 40 42 32 23 23 22 19 27 23 29 39 40 37 46 36 28 30 38 31 31 31 30 30 31 29 32 34 33
6 10 6 26 23 10 12 13 14 10 6 9 10 24 25 38 44 44 50 30 6 8 13 7 11 18 33 44 36 37 38 34 31 30 33 31 28 31 34 34 33 33 32 34
11 7 14 23 14 14 6 18 21 19 12 5 8 15 31 29 37 41 46 32 8 13 10 13 18 20 27 33 34 34 33 35 32 31 28 27 28 32 34 35 35 32 31 34
7 8 11 21 3 6 10 27 21 10 13 27 22 29 12 30 31 31 35 28 13 8 11 12 15 15 17 23 21 24 25 24 27 27 28 29 33 33 35 35 32 32 36 37
14 4 11 11 0 16 27 28 27 29 15 19 10 11 31 28 22 28 28 31 28 12 12 12 16 17 16 12 12 11 15 18 22 24 25 28 30 30 31 32 29 29 31 31
17 11 12 11 22 27 32 26 24 21 10 23 17 39 25 22 23 22 20 21 21 14 20 20 24 21 13 18 19 17 18 19 20 22 24 26 28 31 30 26 27 30 28 30
9 11 11 16 21 25 18 21 19 13 19 15 36 27 25 19 14 15 20 32 24 7 10 23 21 18 15 13 16 14 11 10 10 13 17 23 27 29 31 31 30 27 30 26
10 8 11 23 20 17 17 12 17 13 18 31 32 26 26 6 8 10 15 17 26 13 8 8 22 24 17 14 12 11 6 2 2 6 7 12 15 15 18 17 23 19 27 23
6 7 12 12 17 17 5 17 21 16 12 24 29 25 16 5 3 3 5 11 15 26 18 14 16 21 16 10 9 9 6 4 2 3 4 6 9 13 17 18 22 24 26 24
4 6 10 11 9 2 2 13 21 15 6 18 19 24 10 13 6 2 10 11 9 16 17 11 15 14 10 8 6 5 3 1 1 2 3 5 11 14 20 19 25 26 26 34
1 4 4 3 4 10 10 15 26 16 7 17 18 20 22 15 14 16 10 12 14 9 8 6 3 1 3 3 4 5 4 4 6 7 7 6 7 12 19 24 22 25 28 26
3 3 7 4 4 4 3 12 15 8 11 13 16 19 23 18 14 15 16 16 15 10 5 5 5 4 4 5 7 7 7 6 7 8 10 10 9 11 11 17 23 26 26 32
1 6 3 5 5 7 8 19 8 3 8 14 14 17 21 17 17 16 15 16 16 6 4 6 4 4 7 5 6 7 8 8 8 9 10 12 12 11 11 12 12 23 34 28
2 2 3 3 4 6 12 16 12 13 12 15 15 15 17 18 17 14 12 10 9 4 7 6 6 6 8 8 7 8 8 9 8 8 8 10 13 13 13 12 13 10 16 34
5 4 5 5 7 15 12 14 15 16 16 15 14 13 15 18 19 9 9 8 12 9 10 7 6 7 8 7 6 7 8 8 7 6 7 7 10 12 15 15 14 13 12 16
11 11 9 11 8 12 14 13 12 15 17 17 15 15 15 15 15 11 8 10 10 13 11 9 8 7 7 7 6 6 7 6 7 6 6 7 8 10 13 15 16 16 15 13
14 14 16 17 14 15 14 12 11 13 16 17 17 14 12 13 12 11 10 10 10 11 10 9 8 8 8 8 7 7 6 7 7 7 8 8 8 8 10 14 16 15 15 12
15 18 19 20 14 13 13 13 13 14 17 16 15 15 13 13 11 12 11 11 12 11 10 8 7 7 7 8 7 7 7 7 6 6 7 9 9 10 10 10 11 13 13 12

GFSCGP_700_spd_132.txt.gz
Wind_Speed
11 10 10 10 8 10 18 25 34 34 31 32 39 51 56 45 46 46 48 46 40 45 55 59 60 53 51 45 39 45 48 45 39 47 45 42 39 35 30 25 23 21 24 26
9 9 9 6 9 18 22 27 31 31 29 37 44 48 47 42 41 39 42 46 48 50 48 48 60 60 56 48 40 41 43 46 47 40 46 45 40 40 33 27 27 24 20 21
7 7 5 7 17 19 20 19 23 31 42 39 13 49 41 36 37 40 43 47 45 44 51 51 49 61 59 52 42 35 42 41 47 47 44 43 43 42 40 34 29 28 26 23
3 3 6 13 11 19 23 17 21 30 29 26 30 14 41 47 37 43 46 45 45 42 44 49 51 52 60 53 44 39 34 40 45 47 51 51 48 45 41 32 34 32 32 27
4 5 7 3 15 16 14 22 26 24 22 19 11 4 34 42 37 44 60 52 42 38 36 41 40 44 51 48 45 38 39 35 46 48 45 53 56 49 40 36 39 35 33 30
2 5 1 9 12 13 20 22 18 14 9 3 6 13 43 27 37 45 56 65 39 31 29 22 20 18 22 35 27 37 36 31 41 52 47 47 53 53 48 44 43 38 35 32
3 6 1 13 19 7 12 20 8 7 4 5 20 25 22 31 40 42 55 58 38 24 19 8 11 11 21 25 27 36 39 38 36 43 45 41 43 40 41 41 41 41 37 36
3 4 3 7 16 12 11 17 5 3 4 13 33 8 19 41 37 43 48 52 29 24 20 8 9 15 26 29 28 26 36 42 34 36 40 41 36 43 39 39 39 38 35 36
3 3 2 13 11 6 6 11 2 8 12 8 12 18 41 25 40 48 51 53 50 21 23 15 6 10 21 26 28 29 31 39 31 24 26 36 41 43 39 36 39 33 32 38
1 2 2 13 4 4 5 15 6 5 4 6 6 17 15 41 49 49 44 44 43 24 16 13 6 4 18 24 30 32 22 43 29 26 29 28 38 38 41 34 36 37 37 35
6 2 2 9 2 5 3 8 14 8 6 3 6 14 22 38 45 43 41 39 36 29 12 8 8 13 8 16 31 32 26 46 23 25 29 36 33 37 32 31 31 34 36 32
6 3 5 12 7 5 7 13 17 5 4 14 12 14 14 42 37 33 37 46 35 24 14 5 15 16 11 16 19 27 20 30 31 20 28 30 35 40 39 29 31 33 32 29
6 0 5 1 6 5 13 16 17 17 10 11 9 16 44 33 26 26 35 40 30 22 14 5 5 25 16 14 15 25 26 24 22 25 24 25 24 23 22 26 31 33 31 29
9 5 7 9 8 11 18 18 15 12 11 14 15 41 35 31 21 22 27 25 29 24 18 18 20 22 11 12 7 13 10 10 15 14 20 22 22 19 27 30 33 31 31 31
8 7 8 10 11 14 15 13 11 14 13 11 29 31 26 31 16 14 21 23 27 29 19 19 18 18 14 8 9 6 8 11 9 10 13 18 23 26 28 27 28 27 24 25
8 5 6 15 9 7 13 11 9 10 8 15 19 22 20 25 22 14 17 19 24 29 27 21 19 18 21 18 15 14 11 10 10 9 9 10 14 19 24 25 26 28 26 24
5 3 6 5 7 10 5 3 11 15 11 10 17 22 25 23 24 24 23 23 22 22 21 19 19 14 17 16 15 10 8 8 6 4 5 4 5 8 12 11 13 20 23 21
4 4 5 5 6 1 2 6 11 17 10 8 13 15 19 20 20 21 25 21 22 22 18 16 13 15 15 15 11 7 4 2 0 1 3 4 7 8 11 16 14 18 18 23
6 5 3 2 3 9 10 6 16 19 13 13 15 14 17 16 17 18 21 21 22 22 21 14 14 6 11 7 9 7 5 4 5 5 6 6 6 7 16 16 18 17 23 22
5 8 6 2 2 4 3 8 18 13 11 8 15 16 20 20 20 22 21 24 22 21 18 14 10 9 7 8 9 8 7 6 6 6 7 7 8 9 9 10 17 20 22 26
8 8 10 10 6 6 7 8 14 4 8 17 17 16 18 21 23 25 22 20 21 17 16 14 13 10 10 9 10 9 9 9 7 7 8 8 9 10 10 10 12 13 21 25
10 7 7 6 5 6 4 12 9 12 15 16 14 14 14 17 19 19 15 16 15 14 12 15 16 11 9 8 9 10 10 9 9 7 7 8 8 9 10 12 12 12 14 13
7 8 4 6 6 11 17 14 17 17 17 16 15 14 15 15 17 16 14 12 13 11 13 16 15 12 9 8 8 9 9 9 9 7 6 6 7 8 8 11 13 13 14 13
13 11 13 13 12 12 16 16 17 17 17 18 18 16 15 15 17 15 15 13 12 13 12 15 14 12 11 11 9 9 8 8 8 8 7 7 6 6 8 9 10 12 13 14
16 16 19 21 19 17 17 13 12 15 17 19 21 18 16 16 16 16 14 15 14 11 11 13 12 11 11 10 10 10 9 8 8 8 8 7 6 5 5 6 9 11 12 12
13 17 20 23 19 16 17 16 16 16 16 20 21 20 18 16 16 16 16 16 16 13 12 14 13 11 10 10 9 8 8 8 7 7 8 8 8 7 7 7 7 6 7 9